<?xml version="1.0" encoding="UTF-8" standalone="no" ?>
<gpx xmlns="http://www.topografix.com/GPX/1/1" xmlns:xsi="http://www.w3.org/2001/XMLSchema-instance" xsi:schemaLocation="http://www.topografix.com/GPX/1/1 http://www.topografix.com/GPX/1/1/gpx.xsd" version="1.1" creator="VisuGPX - https://www.visugpx.com">
  <metadata>
    <name>De Thury à Clécy</name>
    <desc><![CDATA[voie verte suisse normande trace 1, 2,3, 4, 5]]></desc>
  </metadata>
  <trk>
    <name><![CDATA[Thury_conde]]></name>
    <trkseg>
      <trkpt lat="48.90556" lon="-0.46782">
        <ele>65</ele>
        <time>2018-07-10T06:49:39Z</time>
      </trkpt>
      <trkpt lat="48.90579" lon="-0.46829">
        <ele>64.9</ele>
        <time>2018-07-10T06:49:39Z</time>
      </trkpt>
      <trkpt lat="48.90612" lon="-0.46887">
        <ele>64</ele>
        <time>2018-07-10T06:49:39Z</time>
      </trkpt>
      <trkpt lat="48.90621" lon="-0.46902">
        <ele>63</ele>
        <time>2018-07-10T06:49:39Z</time>
      </trkpt>
      <trkpt lat="48.90655" lon="-0.46949">
        <ele>61.9</ele>
        <time>2018-07-10T06:49:39Z</time>
      </trkpt>
      <trkpt lat="48.90689" lon="-0.46989">
        <ele>60.5</ele>
        <time>2018-07-10T06:49:39Z</time>
      </trkpt>
      <trkpt lat="48.90724" lon="-0.47021">
        <ele>60.4</ele>
        <time>2018-07-10T06:49:39Z</time>
      </trkpt>
      <trkpt lat="48.90753" lon="-0.47047">
        <ele>58.9</ele>
        <time>2018-07-10T06:49:39Z</time>
      </trkpt>
      <trkpt lat="48.90785" lon="-0.47069">
        <ele>57.9</ele>
        <time>2018-07-10T06:49:39Z</time>
      </trkpt>
      <trkpt lat="48.90819" lon="-0.47089">
        <ele>58.8</ele>
        <time>2018-07-10T06:49:39Z</time>
      </trkpt>
      <trkpt lat="48.9087" lon="-0.47114">
        <ele>54.8</ele>
        <time>2018-07-10T06:49:39Z</time>
      </trkpt>
      <trkpt lat="48.90898" lon="-0.47127">
        <ele>42.2</ele>
        <time>2018-07-10T06:49:39Z</time>
      </trkpt>
      <trkpt lat="48.90975" lon="-0.47163">
        <ele>38</ele>
        <time>2018-07-10T06:49:39Z</time>
      </trkpt>
      <trkpt lat="48.91003" lon="-0.47177">
        <ele>51.8</ele>
        <time>2018-07-10T06:49:39Z</time>
      </trkpt>
      <trkpt lat="48.91049" lon="-0.47198">
        <ele>57</ele>
        <time>2018-07-10T06:49:39Z</time>
      </trkpt>
      <trkpt lat="48.91099" lon="-0.47225">
        <ele>57.5</ele>
        <time>2018-07-10T06:49:39Z</time>
      </trkpt>
      <trkpt lat="48.91159" lon="-0.47248">
        <ele>56.9</ele>
        <time>2018-07-10T06:49:39Z</time>
      </trkpt>
      <trkpt lat="48.912" lon="-0.47256">
        <ele>55.5</ele>
        <time>2018-07-10T06:49:39Z</time>
      </trkpt>
      <trkpt lat="48.91229" lon="-0.4726">
        <ele>54.7</ele>
        <time>2018-07-10T06:49:39Z</time>
      </trkpt>
      <trkpt lat="48.91262" lon="-0.47261">
        <ele>53.5</ele>
        <time>2018-07-10T06:49:39Z</time>
      </trkpt>
      <trkpt lat="48.91283" lon="-0.47259">
        <ele>52.9</ele>
        <time>2018-07-10T06:49:39Z</time>
      </trkpt>
      <trkpt lat="48.91307" lon="-0.47257">
        <ele>51.5</ele>
        <time>2018-07-10T06:49:39Z</time>
      </trkpt>
      <trkpt lat="48.91352" lon="-0.47252">
        <ele>52.5</ele>
        <time>2018-07-10T06:49:39Z</time>
      </trkpt>
      <trkpt lat="48.91387" lon="-0.47248">
        <ele>51.7</ele>
        <time>2018-07-10T06:49:39Z</time>
      </trkpt>
      <trkpt lat="48.91461" lon="-0.47239">
        <ele>48.4</ele>
        <time>2018-07-10T06:49:39Z</time>
      </trkpt>
      <trkpt lat="48.91548" lon="-0.47231">
        <ele>49.1</ele>
        <time>2018-07-10T06:49:39Z</time>
      </trkpt>
      <trkpt lat="48.9163" lon="-0.4722">
        <ele>49.1</ele>
        <time>2018-07-10T06:49:39Z</time>
      </trkpt>
      <trkpt lat="48.91711" lon="-0.47206">
        <ele>45.8</ele>
        <time>2018-07-10T06:49:39Z</time>
      </trkpt>
      <trkpt lat="48.91712" lon="-0.47206">
        <ele>45.9</ele>
        <time>2018-07-10T06:49:39Z</time>
      </trkpt>
      <trkpt lat="48.91716" lon="-0.47205">
        <ele>45.9</ele>
        <time>2018-07-10T06:49:39Z</time>
      </trkpt>
      <trkpt lat="48.91783" lon="-0.472">
        <ele>46.9</ele>
        <time>2018-07-10T06:49:39Z</time>
      </trkpt>
      <trkpt lat="48.91793" lon="-0.47198">
        <ele>46.9</ele>
        <time>2018-07-10T06:49:39Z</time>
      </trkpt>
      <trkpt lat="48.91874" lon="-0.47185">
        <ele>45.9</ele>
        <time>2018-07-10T06:49:39Z</time>
      </trkpt>
      <trkpt lat="48.91951" lon="-0.47175">
        <ele>45.4</ele>
        <time>2018-07-10T06:49:39Z</time>
      </trkpt>
      <trkpt lat="48.92019" lon="-0.47163">
        <ele>45.5</ele>
        <time>2018-07-10T06:49:39Z</time>
      </trkpt>
      <trkpt lat="48.92085" lon="-0.47143">
        <ele>43.7</ele>
        <time>2018-07-10T06:49:39Z</time>
      </trkpt>
      <trkpt lat="48.9216" lon="-0.4712">
        <ele>41.7</ele>
        <time>2018-07-10T06:49:39Z</time>
      </trkpt>
      <trkpt lat="48.92234" lon="-0.47096">
        <ele>40.8</ele>
        <time>2018-07-10T06:49:39Z</time>
      </trkpt>
      <trkpt lat="48.92305" lon="-0.47069">
        <ele>41.1</ele>
        <time>2018-07-10T06:49:39Z</time>
      </trkpt>
      <trkpt lat="48.92371" lon="-0.47049">
        <ele>41.1</ele>
        <time>2018-07-10T06:49:39Z</time>
      </trkpt>
      <trkpt lat="48.92433" lon="-0.47032">
        <ele>40.7</ele>
        <time>2018-07-10T06:49:39Z</time>
      </trkpt>
      <trkpt lat="48.92478" lon="-0.47022">
        <ele>41.6</ele>
        <time>2018-07-10T06:49:39Z</time>
      </trkpt>
      <trkpt lat="48.92503" lon="-0.47021">
        <ele>42.6</ele>
        <time>2018-07-10T06:49:39Z</time>
      </trkpt>
      <trkpt lat="48.9253" lon="-0.47023">
        <ele>43.9</ele>
        <time>2018-07-10T06:49:39Z</time>
      </trkpt>
      <trkpt lat="48.92559" lon="-0.47026">
        <ele>41.6</ele>
        <time>2018-07-10T06:49:39Z</time>
      </trkpt>
      <trkpt lat="48.92596" lon="-0.47037">
        <ele>42.6</ele>
        <time>2018-07-10T06:49:39Z</time>
      </trkpt>
      <trkpt lat="48.92636" lon="-0.47056">
        <ele>40.2</ele>
        <time>2018-07-10T06:49:39Z</time>
      </trkpt>
      <trkpt lat="48.92671" lon="-0.47083">
        <ele>40.8</ele>
        <time>2018-07-10T06:49:39Z</time>
      </trkpt>
      <trkpt lat="48.92711" lon="-0.47132">
        <ele>39</ele>
        <time>2018-07-10T06:49:39Z</time>
      </trkpt>
      <trkpt lat="48.9274" lon="-0.47173">
        <ele>37.1</ele>
        <time>2018-07-10T06:49:39Z</time>
      </trkpt>
      <trkpt lat="48.92767" lon="-0.47222">
        <ele>35</ele>
        <time>2018-07-10T06:49:39Z</time>
      </trkpt>
      <trkpt lat="48.92791" lon="-0.47283">
        <ele>35.1</ele>
        <time>2018-07-10T06:49:39Z</time>
      </trkpt>
      <trkpt lat="48.9281" lon="-0.47346">
        <ele>36.8</ele>
        <time>2018-07-10T06:49:39Z</time>
      </trkpt>
      <trkpt lat="48.92819" lon="-0.47402">
        <ele>34.8</ele>
        <time>2018-07-10T06:49:39Z</time>
      </trkpt>
      <trkpt lat="48.92824" lon="-0.47433">
        <ele>34.3</ele>
        <time>2018-07-10T06:49:39Z</time>
      </trkpt>
      <trkpt lat="48.92825" lon="-0.4749">
        <ele>35.9</ele>
        <time>2018-07-10T06:49:39Z</time>
      </trkpt>
      <trkpt lat="48.92821" lon="-0.47559">
        <ele>41.4</ele>
        <time>2018-07-10T06:49:39Z</time>
      </trkpt>
      <trkpt lat="48.9281" lon="-0.47642">
        <ele>41.1</ele>
        <time>2018-07-10T06:49:39Z</time>
      </trkpt>
      <trkpt lat="48.92793" lon="-0.47728">
        <ele>42.2</ele>
        <time>2018-07-10T06:49:39Z</time>
      </trkpt>
      <trkpt lat="48.92781" lon="-0.47792">
        <ele>40</ele>
        <time>2018-07-10T06:49:39Z</time>
      </trkpt>
      <trkpt lat="48.92773" lon="-0.47832">
        <ele>37.3</ele>
        <time>2018-07-10T06:49:39Z</time>
      </trkpt>
      <trkpt lat="48.92764" lon="-0.47908">
        <ele>37</ele>
        <time>2018-07-10T06:49:39Z</time>
      </trkpt>
      <trkpt lat="48.92762" lon="-0.47954">
        <ele>37.9</ele>
        <time>2018-07-10T06:49:39Z</time>
      </trkpt>
      <trkpt lat="48.92763" lon="-0.48014">
        <ele>38.9</ele>
        <time>2018-07-10T06:49:39Z</time>
      </trkpt>
      <trkpt lat="48.92766" lon="-0.48087">
        <ele>38.9</ele>
        <time>2018-07-10T06:49:39Z</time>
      </trkpt>
      <trkpt lat="48.9277" lon="-0.48186">
        <ele>40.6</ele>
        <time>2018-07-10T06:49:39Z</time>
      </trkpt>
      <trkpt lat="48.92775" lon="-0.48291">
        <ele>39.9</ele>
        <time>2018-07-10T06:49:39Z</time>
      </trkpt>
      <trkpt lat="48.92782" lon="-0.48422">
        <ele>39.6</ele>
        <time>2018-07-10T06:49:39Z</time>
      </trkpt>
      <trkpt lat="48.92788" lon="-0.48545">
        <ele>37.6</ele>
        <time>2018-07-10T06:49:39Z</time>
      </trkpt>
      <trkpt lat="48.92795" lon="-0.48677">
        <ele>38.8</ele>
        <time>2018-07-10T06:49:39Z</time>
      </trkpt>
      <trkpt lat="48.92801" lon="-0.48763">
        <ele>41.5</ele>
        <time>2018-07-10T06:49:39Z</time>
      </trkpt>
      <trkpt lat="48.92806" lon="-0.48868">
        <ele>42</ele>
        <time>2018-07-10T06:49:39Z</time>
      </trkpt>
      <trkpt lat="48.92811" lon="-0.48978">
        <ele>42.4</ele>
        <time>2018-07-10T06:49:39Z</time>
      </trkpt>
      <trkpt lat="48.9282" lon="-0.49138">
        <ele>43.1</ele>
        <time>2018-07-10T06:49:39Z</time>
      </trkpt>
      <trkpt lat="48.92828" lon="-0.49302">
        <ele>41.6</ele>
        <time>2018-07-10T06:49:39Z</time>
      </trkpt>
      <trkpt lat="48.92835" lon="-0.49444">
        <ele>41.1</ele>
        <time>2018-07-10T06:49:39Z</time>
      </trkpt>
      <trkpt lat="48.92842" lon="-0.49587">
        <ele>39.9</ele>
        <time>2018-07-10T06:49:39Z</time>
      </trkpt>
      <trkpt lat="48.9285" lon="-0.49734">
        <ele>40.1</ele>
        <time>2018-07-10T06:49:39Z</time>
      </trkpt>
      <trkpt lat="48.92858" lon="-0.49894">
        <ele>38.4</ele>
        <time>2018-07-10T06:49:39Z</time>
      </trkpt>
      <trkpt lat="48.92864" lon="-0.49967">
        <ele>37.9</ele>
        <time>2018-07-10T06:49:39Z</time>
      </trkpt>
      <trkpt lat="48.92869" lon="-0.50022">
        <ele>37.9</ele>
        <time>2018-07-10T06:49:39Z</time>
      </trkpt>
      <trkpt lat="48.92882" lon="-0.50097">
        <ele>37.4</ele>
        <time>2018-07-10T06:49:39Z</time>
      </trkpt>
      <trkpt lat="48.92895" lon="-0.50176">
        <ele>37.5</ele>
        <time>2018-07-10T06:49:39Z</time>
      </trkpt>
      <trkpt lat="48.92906" lon="-0.50248">
        <ele>35.2</ele>
        <time>2018-07-10T06:49:39Z</time>
      </trkpt>
      <trkpt lat="48.92921" lon="-0.50341">
        <ele>35.9</ele>
        <time>2018-07-10T06:49:39Z</time>
      </trkpt>
      <trkpt lat="48.92934" lon="-0.50433">
        <ele>35.8</ele>
        <time>2018-07-10T06:49:39Z</time>
      </trkpt>
      <trkpt lat="48.92946" lon="-0.50538">
        <ele>36.7</ele>
        <time>2018-07-10T06:49:39Z</time>
      </trkpt>
      <trkpt lat="48.9296" lon="-0.50651">
        <ele>34.3</ele>
        <time>2018-07-10T06:49:39Z</time>
      </trkpt>
      <trkpt lat="48.92973" lon="-0.50715">
        <ele>36.7</ele>
        <time>2018-07-10T06:49:39Z</time>
      </trkpt>
      <trkpt lat="48.9299" lon="-0.50776">
        <ele>41.1</ele>
        <time>2018-07-10T06:49:39Z</time>
      </trkpt>
      <trkpt lat="48.93016" lon="-0.50846">
        <ele>44.9</ele>
        <time>2018-07-10T06:49:39Z</time>
      </trkpt>
      <trkpt lat="48.93052" lon="-0.50909">
        <ele>40.3</ele>
        <time>2018-07-10T06:49:39Z</time>
      </trkpt>
      <trkpt lat="48.93084" lon="-0.50955">
        <ele>39.6</ele>
        <time>2018-07-10T06:49:39Z</time>
      </trkpt>
      <trkpt lat="48.93119" lon="-0.50999">
        <ele>38.5</ele>
        <time>2018-07-10T06:49:39Z</time>
      </trkpt>
      <trkpt lat="48.93146" lon="-0.51024">
        <ele>36.2</ele>
        <time>2018-07-10T06:49:39Z</time>
      </trkpt>
      <trkpt lat="48.93187" lon="-0.51044">
        <ele>35.3</ele>
        <time>2018-07-10T06:49:39Z</time>
      </trkpt>
      <trkpt lat="48.93216" lon="-0.51058">
        <ele>34.9</ele>
        <time>2018-07-10T06:49:39Z</time>
      </trkpt>
      <trkpt lat="48.93245" lon="-0.51067">
        <ele>34</ele>
        <time>2018-07-10T06:49:39Z</time>
      </trkpt>
      <trkpt lat="48.93272" lon="-0.51072">
        <ele>34.3</ele>
        <time>2018-07-10T06:49:39Z</time>
      </trkpt>
      <trkpt lat="48.93298" lon="-0.51077">
        <ele>35.1</ele>
        <time>2018-07-10T06:49:39Z</time>
      </trkpt>
      <trkpt lat="48.93325" lon="-0.51077">
        <ele>34.5</ele>
        <time>2018-07-10T06:49:39Z</time>
      </trkpt>
      <trkpt lat="48.93359" lon="-0.51073">
        <ele>32.7</ele>
        <time>2018-07-10T06:49:39Z</time>
      </trkpt>
      <trkpt lat="48.93382" lon="-0.51067">
        <ele>33.6</ele>
        <time>2018-07-10T06:49:39Z</time>
      </trkpt>
      <trkpt lat="48.93408" lon="-0.51058">
        <ele>35.1</ele>
        <time>2018-07-10T06:49:39Z</time>
      </trkpt>
      <trkpt lat="48.9343" lon="-0.51046">
        <ele>34.2</ele>
        <time>2018-07-10T06:49:39Z</time>
      </trkpt>
      <trkpt lat="48.93458" lon="-0.5103">
        <ele>34.4</ele>
        <time>2018-07-10T06:49:39Z</time>
      </trkpt>
      <trkpt lat="48.93489" lon="-0.51007">
        <ele>34.2</ele>
        <time>2018-07-10T06:49:39Z</time>
      </trkpt>
      <trkpt lat="48.9353" lon="-0.50968">
        <ele>35.2</ele>
        <time>2018-07-10T06:49:39Z</time>
      </trkpt>
      <trkpt lat="48.93589" lon="-0.50907">
        <ele>34.4</ele>
        <time>2018-07-10T06:49:39Z</time>
      </trkpt>
      <trkpt lat="48.93662" lon="-0.50832">
        <ele>36.4</ele>
        <time>2018-07-10T06:49:39Z</time>
      </trkpt>
      <trkpt lat="48.93698" lon="-0.50796">
        <ele>36.8</ele>
        <time>2018-07-10T06:49:39Z</time>
      </trkpt>
      <trkpt lat="48.93773" lon="-0.50718">
        <ele>37.5</ele>
        <time>2018-07-10T06:49:39Z</time>
      </trkpt>
      <trkpt lat="48.93813" lon="-0.50677">
        <ele>37.9</ele>
        <time>2018-07-10T06:49:39Z</time>
      </trkpt>
      <trkpt lat="48.93906" lon="-0.5058">
        <ele>37.5</ele>
        <time>2018-07-10T06:49:39Z</time>
      </trkpt>
      <trkpt lat="48.93994" lon="-0.50493">
        <ele>37.1</ele>
        <time>2018-07-10T06:49:39Z</time>
      </trkpt>
      <trkpt lat="48.94072" lon="-0.50415">
        <ele>37.4</ele>
        <time>2018-07-10T06:49:39Z</time>
      </trkpt>
      <trkpt lat="48.94131" lon="-0.50354">
        <ele>37.2</ele>
        <time>2018-07-10T06:49:39Z</time>
      </trkpt>
      <trkpt lat="48.94204" lon="-0.50277">
        <ele>37</ele>
        <time>2018-07-10T06:49:39Z</time>
      </trkpt>
      <trkpt lat="48.94263" lon="-0.50214">
        <ele>37.5</ele>
        <time>2018-07-10T06:49:39Z</time>
      </trkpt>
      <trkpt lat="48.94289" lon="-0.50189">
        <ele>37.8</ele>
        <time>2018-07-10T06:49:39Z</time>
      </trkpt>
      <trkpt lat="48.94308" lon="-0.50174">
        <ele>37.7</ele>
        <time>2018-07-10T06:49:39Z</time>
      </trkpt>
      <trkpt lat="48.94341" lon="-0.50157">
        <ele>37.2</ele>
        <time>2018-07-10T06:49:39Z</time>
      </trkpt>
      <trkpt lat="48.94363" lon="-0.5015">
        <ele>37.2</ele>
        <time>2018-07-10T06:49:39Z</time>
      </trkpt>
      <trkpt lat="48.94385" lon="-0.50144">
        <ele>37</ele>
        <time>2018-07-10T06:49:39Z</time>
      </trkpt>
      <trkpt lat="48.94406" lon="-0.5014">
        <ele>36.9</ele>
        <time>2018-07-10T06:49:39Z</time>
      </trkpt>
      <trkpt lat="48.94427" lon="-0.50142">
        <ele>36.5</ele>
        <time>2018-07-10T06:49:39Z</time>
      </trkpt>
      <trkpt lat="48.94443" lon="-0.50145">
        <ele>36</ele>
        <time>2018-07-10T06:49:39Z</time>
      </trkpt>
      <trkpt lat="48.94446" lon="-0.50146">
        <ele>36.1</ele>
        <time>2018-07-10T06:49:39Z</time>
      </trkpt>
      <trkpt lat="48.94466" lon="-0.50153">
        <ele>37.5</ele>
        <time>2018-07-10T06:49:39Z</time>
      </trkpt>
      <trkpt lat="48.94501" lon="-0.50167">
        <ele>36.1</ele>
        <time>2018-07-10T06:49:39Z</time>
      </trkpt>
      <trkpt lat="48.94523" lon="-0.50177">
        <ele>36.5</ele>
        <time>2018-07-10T06:49:39Z</time>
      </trkpt>
      <trkpt lat="48.94559" lon="-0.50198">
        <ele>34.8</ele>
        <time>2018-07-10T06:49:39Z</time>
      </trkpt>
      <trkpt lat="48.94598" lon="-0.50222">
        <ele>36.3</ele>
        <time>2018-07-10T06:49:39Z</time>
      </trkpt>
      <trkpt lat="48.94633" lon="-0.50244">
        <ele>37.3</ele>
        <time>2018-07-10T06:49:39Z</time>
      </trkpt>
      <trkpt lat="48.94656" lon="-0.50256">
        <ele>35.7</ele>
        <time>2018-07-10T06:49:39Z</time>
      </trkpt>
      <trkpt lat="48.94677" lon="-0.50263">
        <ele>35.5</ele>
        <time>2018-07-10T06:49:39Z</time>
      </trkpt>
      <trkpt lat="48.94695" lon="-0.50265">
        <ele>36</ele>
        <time>2018-07-10T06:49:39Z</time>
      </trkpt>
      <trkpt lat="48.94717" lon="-0.50266">
        <ele>36.3</ele>
        <time>2018-07-10T06:49:39Z</time>
      </trkpt>
      <trkpt lat="48.94771" lon="-0.50266">
        <ele>31.2</ele>
        <time>2018-07-10T06:49:39Z</time>
      </trkpt>
      <trkpt lat="48.94805" lon="-0.50268">
        <ele>31</ele>
        <time>2018-07-10T06:49:39Z</time>
      </trkpt>
      <trkpt lat="48.94834" lon="-0.50269">
        <ele>31.6</ele>
        <time>2018-07-10T06:49:39Z</time>
      </trkpt>
      <trkpt lat="48.94856" lon="-0.50271">
        <ele>31.3</ele>
        <time>2018-07-10T06:49:39Z</time>
      </trkpt>
      <trkpt lat="48.94877" lon="-0.50275">
        <ele>32.2</ele>
        <time>2018-07-10T06:49:39Z</time>
      </trkpt>
      <trkpt lat="48.94899" lon="-0.5028">
        <ele>32.1</ele>
        <time>2018-07-10T06:49:39Z</time>
      </trkpt>
      <trkpt lat="48.94935" lon="-0.50293">
        <ele>34.4</ele>
        <time>2018-07-10T06:49:39Z</time>
      </trkpt>
      <trkpt lat="48.94981" lon="-0.50314">
        <ele>31.6</ele>
        <time>2018-07-10T06:49:39Z</time>
      </trkpt>
      <trkpt lat="48.95024" lon="-0.50332">
        <ele>32.1</ele>
        <time>2018-07-10T06:49:39Z</time>
      </trkpt>
      <trkpt lat="48.95051" lon="-0.50341">
        <ele>34</ele>
        <time>2018-07-10T06:49:39Z</time>
      </trkpt>
      <trkpt lat="48.95071" lon="-0.50348">
        <ele>34.2</ele>
        <time>2018-07-10T06:49:39Z</time>
      </trkpt>
      <trkpt lat="48.9509" lon="-0.5035">
        <ele>34.5</ele>
        <time>2018-07-10T06:49:39Z</time>
      </trkpt>
      <trkpt lat="48.95111" lon="-0.50351">
        <ele>34.7</ele>
        <time>2018-07-10T06:49:39Z</time>
      </trkpt>
      <trkpt lat="48.95127" lon="-0.5035">
        <ele>33.9</ele>
        <time>2018-07-10T06:49:39Z</time>
      </trkpt>
      <trkpt lat="48.95143" lon="-0.50348">
        <ele>33.3</ele>
        <time>2018-07-10T06:49:39Z</time>
      </trkpt>
      <trkpt lat="48.9516" lon="-0.50343">
        <ele>33.4</ele>
        <time>2018-07-10T06:49:39Z</time>
      </trkpt>
      <trkpt lat="48.9518" lon="-0.50337">
        <ele>33.9</ele>
        <time>2018-07-10T06:49:39Z</time>
      </trkpt>
      <trkpt lat="48.95207" lon="-0.50326">
        <ele>34.7</ele>
        <time>2018-07-10T06:49:39Z</time>
      </trkpt>
      <trkpt lat="48.95233" lon="-0.50308">
        <ele>35</ele>
        <time>2018-07-10T06:49:39Z</time>
      </trkpt>
      <trkpt lat="48.95255" lon="-0.50288">
        <ele>35.9</ele>
        <time>2018-07-10T06:49:39Z</time>
      </trkpt>
      <trkpt lat="48.95282" lon="-0.50258">
        <ele>35.3</ele>
        <time>2018-07-10T06:49:39Z</time>
      </trkpt>
      <trkpt lat="48.95282" lon="-0.50258">
        <ele>35.3</ele>
        <time>2018-07-10T06:49:39Z</time>
      </trkpt>
      <trkpt lat="48.95291" lon="-0.50247">
        <ele>35.7</ele>
        <time>2018-07-10T06:49:39Z</time>
      </trkpt>
      <trkpt lat="48.95282" lon="-0.50258">
        <ele>35.3</ele>
        <time>2018-07-10T06:49:39Z</time>
      </trkpt>
      <trkpt lat="48.95282" lon="-0.50258">
        <ele>35.3</ele>
        <time>2018-07-10T06:49:39Z</time>
      </trkpt>
      <trkpt lat="48.95291" lon="-0.50247">
        <ele>35.7</ele>
        <time>2018-07-10T06:49:39Z</time>
      </trkpt>
      <trkpt lat="48.95304" lon="-0.5023">
        <ele>35.1</ele>
        <time>2018-07-10T06:49:39Z</time>
      </trkpt>
      <trkpt lat="48.95319" lon="-0.50206">
        <ele>35.8</ele>
        <time>2018-07-10T06:49:39Z</time>
      </trkpt>
      <trkpt lat="48.95331" lon="-0.50183">
        <ele>35.1</ele>
        <time>2018-07-10T06:49:39Z</time>
      </trkpt>
      <trkpt lat="48.95337" lon="-0.50171">
        <ele>35.3</ele>
        <time>2018-07-10T06:49:39Z</time>
      </trkpt>
      <trkpt lat="48.95348" lon="-0.50148">
        <ele>35.5</ele>
        <time>2018-07-10T06:49:39Z</time>
      </trkpt>
      <trkpt lat="48.95355" lon="-0.50125">
        <ele>35</ele>
        <time>2018-07-10T06:49:39Z</time>
      </trkpt>
      <trkpt lat="48.95361" lon="-0.50101">
        <ele>34</ele>
        <time>2018-07-10T06:49:39Z</time>
      </trkpt>
      <trkpt lat="48.95368" lon="-0.50066">
        <ele>32.7</ele>
        <time>2018-07-10T06:49:39Z</time>
      </trkpt>
      <trkpt lat="48.95376" lon="-0.50027">
        <ele>30.9</ele>
        <time>2018-07-10T06:49:39Z</time>
      </trkpt>
      <trkpt lat="48.95382" lon="-0.49985">
        <ele>32.4</ele>
        <time>2018-07-10T06:49:39Z</time>
      </trkpt>
      <trkpt lat="48.95391" lon="-0.49925">
        <ele>29.1</ele>
        <time>2018-07-10T06:49:39Z</time>
      </trkpt>
      <trkpt lat="48.95402" lon="-0.49854">
        <ele>28.3</ele>
        <time>2018-07-10T06:49:39Z</time>
      </trkpt>
      <trkpt lat="48.95419" lon="-0.4974">
        <ele>32.3</ele>
        <time>2018-07-10T06:49:39Z</time>
      </trkpt>
      <trkpt lat="48.95446" lon="-0.49566">
        <ele>32.4</ele>
        <time>2018-07-10T06:49:39Z</time>
      </trkpt>
      <trkpt lat="48.95462" lon="-0.49455">
        <ele>31.8</ele>
        <time>2018-07-10T06:49:39Z</time>
      </trkpt>
      <trkpt lat="48.95478" lon="-0.49356">
        <ele>31.8</ele>
        <time>2018-07-10T06:49:39Z</time>
      </trkpt>
      <trkpt lat="48.95492" lon="-0.49278">
        <ele>31.4</ele>
        <time>2018-07-10T06:49:39Z</time>
      </trkpt>
      <trkpt lat="48.95505" lon="-0.49221">
        <ele>32</ele>
        <time>2018-07-10T06:49:39Z</time>
      </trkpt>
      <trkpt lat="48.95515" lon="-0.49178">
        <ele>31.3</ele>
        <time>2018-07-10T06:49:39Z</time>
      </trkpt>
      <trkpt lat="48.95534" lon="-0.49115">
        <ele>31.3</ele>
        <time>2018-07-10T06:49:39Z</time>
      </trkpt>
      <trkpt lat="48.95551" lon="-0.49069">
        <ele>31.7</ele>
        <time>2018-07-10T06:49:39Z</time>
      </trkpt>
      <trkpt lat="48.95572" lon="-0.4902">
        <ele>31.6</ele>
        <time>2018-07-10T06:49:39Z</time>
      </trkpt>
      <trkpt lat="48.95597" lon="-0.4897">
        <ele>31.5</ele>
        <time>2018-07-10T06:49:39Z</time>
      </trkpt>
      <trkpt lat="48.95626" lon="-0.48917">
        <ele>31.5</ele>
        <time>2018-07-10T06:49:39Z</time>
      </trkpt>
      <trkpt lat="48.95654" lon="-0.48866">
        <ele>32</ele>
        <time>2018-07-10T06:49:39Z</time>
      </trkpt>
      <trkpt lat="48.95698" lon="-0.48791">
        <ele>31.5</ele>
        <time>2018-07-10T06:49:39Z</time>
      </trkpt>
      <trkpt lat="48.95792" lon="-0.4863">
        <ele>31</ele>
        <time>2018-07-10T06:49:39Z</time>
      </trkpt>
      <trkpt lat="48.95878" lon="-0.48484">
        <ele>30.1</ele>
        <time>2018-07-10T06:49:39Z</time>
      </trkpt>
      <trkpt lat="48.95914" lon="-0.48419">
        <ele>31.7</ele>
        <time>2018-07-10T06:49:39Z</time>
      </trkpt>
      <trkpt lat="48.95957" lon="-0.48347">
        <ele>32.1</ele>
        <time>2018-07-10T06:49:39Z</time>
      </trkpt>
      <trkpt lat="48.95972" lon="-0.48321">
        <ele>32.1</ele>
        <time>2018-07-10T06:49:39Z</time>
      </trkpt>
      <trkpt lat="48.95992" lon="-0.48289">
        <ele>33.4</ele>
        <time>2018-07-10T06:49:39Z</time>
      </trkpt>
      <trkpt lat="48.96021" lon="-0.48242">
        <ele>32.8</ele>
        <time>2018-07-10T06:49:39Z</time>
      </trkpt>
      <trkpt lat="48.96037" lon="-0.48219">
        <ele>33.4</ele>
        <time>2018-07-10T06:49:39Z</time>
      </trkpt>
      <trkpt lat="48.96058" lon="-0.48194">
        <ele>33.2</ele>
        <time>2018-07-10T06:49:39Z</time>
      </trkpt>
      <trkpt lat="48.96111" lon="-0.48138">
        <ele>31.9</ele>
        <time>2018-07-10T06:49:39Z</time>
      </trkpt>
      <trkpt lat="48.96147" lon="-0.48113">
        <ele>32.4</ele>
        <time>2018-07-10T06:49:39Z</time>
      </trkpt>
      <trkpt lat="48.96152" lon="-0.48109">
        <ele>32.3</ele>
        <time>2018-07-10T06:49:39Z</time>
      </trkpt>
      <trkpt lat="48.96184" lon="-0.48091">
        <ele>31.7</ele>
        <time>2018-07-10T06:49:39Z</time>
      </trkpt>
      <trkpt lat="48.96211" lon="-0.48078">
        <ele>32</ele>
        <time>2018-07-10T06:49:39Z</time>
      </trkpt>
      <trkpt lat="48.96244" lon="-0.48066">
        <ele>31.9</ele>
        <time>2018-07-10T06:49:39Z</time>
      </trkpt>
      <trkpt lat="48.96273" lon="-0.48058">
        <ele>32.8</ele>
        <time>2018-07-10T06:49:39Z</time>
      </trkpt>
      <trkpt lat="48.96307" lon="-0.48054">
        <ele>32.8</ele>
        <time>2018-07-10T06:49:39Z</time>
      </trkpt>
      <trkpt lat="48.96335" lon="-0.48054">
        <ele>32.9</ele>
        <time>2018-07-10T06:49:39Z</time>
      </trkpt>
      <trkpt lat="48.96364" lon="-0.48056">
        <ele>33.1</ele>
        <time>2018-07-10T06:49:39Z</time>
      </trkpt>
      <trkpt lat="48.96468" lon="-0.48078">
        <ele>33.3</ele>
        <time>2018-07-10T06:49:39Z</time>
      </trkpt>
      <trkpt lat="48.96761" lon="-0.48148">
        <ele>33.6</ele>
        <time>2018-07-10T06:49:39Z</time>
      </trkpt>
      <trkpt lat="48.96822" lon="-0.48164">
        <ele>33.5</ele>
        <time>2018-07-10T06:49:39Z</time>
      </trkpt>
      <trkpt lat="48.9689" lon="-0.48181">
        <ele>34</ele>
        <time>2018-07-10T06:49:39Z</time>
      </trkpt>
      <trkpt lat="48.97141" lon="-0.48242">
        <ele>29.8</ele>
        <time>2018-07-10T06:49:39Z</time>
      </trkpt>
      <trkpt lat="48.97164" lon="-0.48248">
        <ele>30.7</ele>
        <time>2018-07-10T06:49:39Z</time>
      </trkpt>
      <trkpt lat="48.9719" lon="-0.48254">
        <ele>30.1</ele>
        <time>2018-07-10T06:49:39Z</time>
      </trkpt>
      <trkpt lat="48.97195" lon="-0.48255">
        <ele>30</ele>
        <time>2018-07-10T06:49:39Z</time>
      </trkpt>
      <trkpt lat="48.97243" lon="-0.48263">
        <ele>29</ele>
        <time>2018-07-10T06:49:39Z</time>
      </trkpt>
      <trkpt lat="48.97264" lon="-0.48264">
        <ele>28.7</ele>
        <time>2018-07-10T06:49:39Z</time>
      </trkpt>
      <trkpt lat="48.97309" lon="-0.4826">
        <ele>28.1</ele>
        <time>2018-07-10T06:49:39Z</time>
      </trkpt>
      <trkpt lat="48.97335" lon="-0.48253">
        <ele>29.6</ele>
        <time>2018-07-10T06:49:39Z</time>
      </trkpt>
      <trkpt lat="48.97361" lon="-0.48243">
        <ele>28.2</ele>
        <time>2018-07-10T06:49:39Z</time>
      </trkpt>
      <trkpt lat="48.97388" lon="-0.48229">
        <ele>28.5</ele>
        <time>2018-07-10T06:49:39Z</time>
      </trkpt>
      <trkpt lat="48.97415" lon="-0.48213">
        <ele>28.3</ele>
        <time>2018-07-10T06:49:39Z</time>
      </trkpt>
      <trkpt lat="48.97513" lon="-0.48141">
        <ele>26.7</ele>
        <time>2018-07-10T06:49:39Z</time>
      </trkpt>
      <trkpt lat="48.97545" lon="-0.48119">
        <ele>28.1</ele>
        <time>2018-07-10T06:49:39Z</time>
      </trkpt>
      <trkpt lat="48.97573" lon="-0.48103">
        <ele>28.4</ele>
        <time>2018-07-10T06:49:39Z</time>
      </trkpt>
      <trkpt lat="48.97577" lon="-0.48101">
        <ele>28.2</ele>
        <time>2018-07-10T06:49:39Z</time>
      </trkpt>
      <trkpt lat="48.97596" lon="-0.48092">
        <ele>28.2</ele>
        <time>2018-07-10T06:49:39Z</time>
      </trkpt>
      <trkpt lat="48.97627" lon="-0.48083">
        <ele>29.6</ele>
        <time>2018-07-10T06:49:39Z</time>
      </trkpt>
      <trkpt lat="48.97653" lon="-0.48078">
        <ele>29.9</ele>
        <time>2018-07-10T06:49:39Z</time>
      </trkpt>
      <trkpt lat="48.9768" lon="-0.48077">
        <ele>30</ele>
        <time>2018-07-10T06:49:39Z</time>
      </trkpt>
      <trkpt lat="48.97711" lon="-0.4808">
        <ele>30.1</ele>
        <time>2018-07-10T06:49:39Z</time>
      </trkpt>
      <trkpt lat="48.97746" lon="-0.48086">
        <ele>29.9</ele>
        <time>2018-07-10T06:49:39Z</time>
      </trkpt>
      <trkpt lat="48.97771" lon="-0.48091">
        <ele>29.9</ele>
        <time>2018-07-10T06:49:39Z</time>
      </trkpt>
      <trkpt lat="48.97826" lon="-0.48102">
        <ele>29.3</ele>
        <time>2018-07-10T06:49:39Z</time>
      </trkpt>
      <trkpt lat="48.97889" lon="-0.48114">
        <ele>30</ele>
        <time>2018-07-10T06:49:39Z</time>
      </trkpt>
      <trkpt lat="48.97959" lon="-0.48133">
        <ele>29.2</ele>
        <time>2018-07-10T06:49:39Z</time>
      </trkpt>
      <trkpt lat="48.98028" lon="-0.48148">
        <ele>29</ele>
        <time>2018-07-10T06:49:39Z</time>
      </trkpt>
      <trkpt lat="48.98434" lon="-0.48236">
        <ele>26</ele>
        <time>2018-07-10T06:49:39Z</time>
      </trkpt>
      <trkpt lat="48.98434" lon="-0.48236">
        <ele>26</ele>
        <time>2018-07-10T06:49:39Z</time>
      </trkpt>
      <trkpt lat="48.98434" lon="-0.48236">
        <ele>26</ele>
        <time>2018-07-10T06:49:39Z</time>
      </trkpt>
      <trkpt lat="48.9851" lon="-0.48247">
        <ele>26.8</ele>
        <time>2018-07-10T06:49:39Z</time>
      </trkpt>
      <trkpt lat="48.98651" lon="-0.48235">
        <ele>25.8</ele>
        <time>2018-07-10T06:49:39Z</time>
      </trkpt>
      <trkpt lat="48.9879" lon="-0.4819">
        <ele>28.8</ele>
        <time>2018-07-10T06:49:39Z</time>
      </trkpt>
      <trkpt lat="48.98862" lon="-0.48166">
        <ele>27</ele>
        <time>2018-07-10T06:49:39Z</time>
      </trkpt>
      <trkpt lat="48.98887" lon="-0.48162">
        <ele>26.8</ele>
        <time>2018-07-10T06:49:39Z</time>
      </trkpt>
      <trkpt lat="48.98926" lon="-0.48163">
        <ele>27</ele>
        <time>2018-07-10T06:49:39Z</time>
      </trkpt>
    </trkseg>
  </trk>
</gpx>